Simultaneous Nadir Overpasses (SNOs) Predictions

Prediction of SNOs between METOP-A and TERRA Satellite Orbit:

Table of predicted SNOs for the next 14.0 days since TLE Epoch: 10/3/2020
Index Date (METOP-A) Time (METOP-A) Lat,Lon (METOP-A) SZA (METOP-A ) Date (TERRA) Time (TERRA) Lat,Lon (TERRA) SZA (TERRA ) Distance(km) Time Diff (sec)
1 10/03/2020 04:56:43 81.31, 156.92 88.97 10/03/2020 04:55:29 81.47, 156.78 89.01 18.72 74
2 10/05/2020 22:49:52 81.39,-114.20 89.75 10/05/2020 22:50:56 81.38,-114.04 89.80 3.08 64
3 10/05/2020 23:40:32 -81.38, 53.46 90.21 10/05/2020 23:40:23 -81.38, 53.51 90.21 1.21 9
4 10/08/2020 18:24:15 81.39, -47.72 90.85 10/08/2020 18:25:11 81.38, -47.62 90.88 2.04 56
5 10/08/2020 19:14:55 -81.38, 119.95 89.11 10/08/2020 19:14:38 -81.38, 119.96 89.12 0.37 17
6 10/11/2020 13:58:37 81.39, 18.74 91.93 10/11/2020 13:59:25 81.38, 18.76 91.95 1.13 48
7 10/11/2020 14:49:17 -81.38,-173.57 88.02 10/11/2020 14:48:52 -81.37,-173.63 88.04 0.96 25
8 10/14/2020 09:33:00 81.38, 85.18 93.00 10/14/2020 09:33:40 81.37, 85.11 93.00 1.79 40
